Hourly Weather Rundy

Today, 18 April, Sunday

Time Temperature Precipitation Wind Pressure Humidity
00:00 +8°C° 0 mm 3 mps 753 mmHg 90%
01:00 +8°C° 0 mm 3 mps 753 mmHg 91%
02:00 +6°C° 0 mm 4 mps 753 mmHg 92%
03:00 +6°C° 0 mm 4 mps 753 mmHg 92%
04:00 +5°C° 0 mm 3 mps 753 mmHg 93%
05:00 +5°C° 0 mm 3 mps 753 mmHg 93%
06:00 +6°C° 0 mm 4 mps 753 mmHg 85%
07:00 +7°C° 0 mm 4 mps 753 mmHg 77%
08:00 +8°C° 0 mm 5 mps 753 mmHg 69%
09:00 +9°C° 0 mm 5 mps 753 mmHg 62%
10:00 +12°C° 0 mm 5 mps 753 mmHg 55%
11:00 +13°C° 0 mm 5 mps 753 mmHg 48%
12:00 +14°C° 0 mm 5 mps 753 mmHg 45%
13:00 +14°C° 0 mm 5 mps 753 mmHg 42%
14:00 +15°C° 0 mm 5 mps 753 mmHg 38%
15:00 +15°C° 0 mm 5 mps 753 mmHg 41%
16:00 +15°C° 0 mm 4 mps 753 mmHg 43%
17:00 +14°C° 0 mm 4 mps 753 mmHg 46%
18:00 +13°C° 0 mm 3 mps 753 mmHg 52%
19:00 +11°C° 0 mm 3 mps 754 mmHg 59%
20:00 +9°C° 0 mm 2 mps 754 mmHg 65%
21:00 +8°C° 0 mm 2 mps 754 mmHg 69%
22:00 +8°C° 0 mm 2 mps 754 mmHg 73%
23:00 +7°C° 0 mm 2 mps 754 mmHg 77%

Tomorrow, 19 April, Monday

Time Temperature Precipitation Wind Pressure Humidity
00:00 +7°C° 0 mm 2 mps 754 mmHg 77%
01:00 +7°C° 0 mm 2 mps 754 mmHg 78%
02:00 +6°C° 0 mm 2 mps 754 mmHg 78%
03:00 +6°C° 0 mm 2 mps 754 mmHg 80%
04:00 +6°C° 0 mm 2 mps 754 mmHg 83%
05:00 +4°C° 0 mm 3 mps 755 mmHg 85%
06:00 +5°C° 0 mm 3 mps 755 mmHg 81%
07:00 +7°C° 0 mm 3 mps 755 mmHg 77%
08:00 +9°C° 0 mm 3 mps 755 mmHg 73%
09:00 +9°C° 0 mm 3 mps 755 mmHg 69%
10:00 +10°C° 0 mm 4 mps 755 mmHg 65%
11:00 +10°C° 0 mm 4 mps 755 mmHg 61%
12:00 +11°C° 0.1 mm 4 mps 755 mmHg 60%
13:00 +11°C° 0.1 mm 4 mps 755 mmHg 58%
14:00 +11°C° 0.1 mm 4 mps 755 mmHg 57%
15:00 +11°C° 0.1 mm 4 mps 754 mmHg 60%
16:00 +11°C° 0.1 mm 4 mps 754 mmHg 64%
17:00 +11°C° 0.1 mm 4 mps 754 mmHg 67%
18:00 +9°C° 0 mm 3 mps 754 mmHg 72%
19:00 +8°C° 0 mm 3 mps 754 mmHg 78%
20:00 +7°C° 0 mm 3 mps 754 mmHg 83%
21:00 +7°C° 0 mm 3 mps 754 mmHg 85%
22:00 +5°C° 0 mm 3 mps 754 mmHg 86%
23:00 +5°C° 0 mm 3 mps 754 mmHg 87%

Day after tomorrow, 20 April, Tuesday

Time Temperature Precipitation Wind Pressure Humidity
00:00 +6°C° 0 mm 2 mps 754 mmHg 88%
01:00 +6°C° 0 mm 2 mps 753 mmHg 90%
02:00 +5°C° 0 mm 2 mps 753 mmHg 91%
03:00 +5°C° 0.1 mm 2 mps 753 mmHg 90%
04:00 +5°C° 0.1 mm 2 mps 752 mmHg 90%
05:00 +5°C° 0.1 mm 2 mps 752 mmHg 89%
06:00 +4°C° 0.1 mm 3 mps 752 mmHg 87%
07:00 +5°C° 0.1 mm 3 mps 752 mmHg 84%
08:00 +5°C° 0.1 mm 3 mps 751 mmHg 82%
09:00 +5°C° 0.1 mm 4 mps 751 mmHg 76%
10:00 +6°C° 0.1 mm 4 mps 751 mmHg 71%
11:00 +6°C° 0.1 mm 4 mps 751 mmHg 66%
12:00 +6°C° 0 mm 4 mps 750 mmHg 66%
13:00 +7°C° 0 mm 3 mps 750 mmHg 65%
14:00 +7°C° 0 mm 3 mps 750 mmHg 64%
15:00 +7°C° 0 mm 3 mps 750 mmHg 65%
16:00 +7°C° 0 mm 3 mps 749 mmHg 65%
17:00 +7°C° 0 mm 3 mps 749 mmHg 65%
18:00 +7°C° 0 mm 3 mps 749 mmHg 68%
19:00 +6°C° 0 mm 2 mps 748 mmHg 71%
20:00 +6°C° 0 mm 2 mps 748 mmHg 74%
21:00 +5°C° 0 mm 2 mps 748 mmHg 76%
22:00 +5°C° 0 mm 2 mps 747 mmHg 79%
23:00 +5°C° 0 mm 2 mps 747 mmHg 82%

21 April, Wednesday

Time Temperature Precipitation Wind Pressure Humidity
00:00 +4°C° 0 mm 3 mps 746 mmHg 83%
01:00 +4°C° 0 mm 3 mps 745 mmHg 85%
02:00 +3°C° 0 mm 3 mps 745 mmHg 87%
03:00 +3°C° 0 mm 3 mps 744 mmHg 87%
04:00 +3°C° 0 mm 4 mps 744 mmHg 87%
05:00 +3°C° 0 mm 4 mps 743 mmHg 88%
06:00 +2°C° 0 mm 5 mps 743 mmHg 86%
07:00 +2°C° 0 mm 5 mps 743 mmHg 83%
08:00 +3°C° 0 mm 5 mps 742 mmHg 81%
09:00 +3°C° 0 mm 5 mps 742 mmHg 77%
10:00 +4°C° 0 mm 6 mps 742 mmHg 73%
11:00 +5°C° 0 mm 6 mps 742 mmHg 69%
12:00 +6°C° 0 mm 5 mps 742 mmHg 66%
13:00 +7°C° 0 mm 5 mps 742 mmHg 64%
14:00 +7°C° 0 mm 5 mps 742 mmHg 61%
15:00 +8°C° 0 mm 4 mps 742 mmHg 59%
16:00 +9°C° 0 mm 3 mps 742 mmHg 58%
17:00 +9°C° 0 mm 3 mps 742 mmHg 56%
18:00 +8°C° 0 mm 2 mps 743 mmHg 61%
19:00 +7°C° 0 mm 2 mps 743 mmHg 66%
20:00 +6°C° 0 mm 2 mps 744 mmHg 71%
21:00 +5°C° 0 mm 2 mps 744 mmHg 75%
22:00 +5°C° 0 mm 2 mps 744 mmHg 79%
23:00 +3°C° 0 mm 3 mps 745 mmHg 83%

22 April, Thursday

Time Temperature Precipitation Wind Pressure Humidity
00:00 +4°C° 0 mm 2 mps 745 mmHg 84%
01:00 +4°C° 0 mm 2 mps 745 mmHg 85%
02:00 +3°C° 0 mm 2 mps 746 mmHg 86%
03:00 +3°C° 0 mm 2 mps 746 mmHg 87%
04:00 +3°C° 0 mm 2 mps 746 mmHg 88%
05:00 +3°C° 0 mm 2 mps 747 mmHg 90%
06:00 +5°C° 0 mm 2 mps 747 mmHg 84%
07:00 +6°C° 0 mm 2 mps 747 mmHg 77%
08:00 +8°C° 0 mm 2 mps 748 mmHg 71%
09:00 +9°C° 0 mm 2 mps 748 mmHg 66%
10:00 +12°C° 0 mm 2 mps 748 mmHg 61%
11:00 +13°C° 0 mm 2 mps 749 mmHg 56%
12:00 +13°C° 0.1 mm 2 mps 749 mmHg 57%
13:00 +13°C° 0.1 mm 2 mps 749 mmHg 57%
14:00 +13°C° 0.1 mm 2 mps 749 mmHg 58%
15:00 +14°C° 0.3 mm 2 mps 749 mmHg 59%
16:00 +14°C° 0.3 mm 2 mps 750 mmHg 59%
17:00 +14°C° 0.3 mm 2 mps 750 mmHg 60%
18:00 +11°C° 0.2 mm 3 mps 750 mmHg 70%
19:00 +9°C° 0.2 mm 3 mps 751 mmHg 81%
20:00 +6°C° 0.2 mm 4 mps 751 mmHg 91%
21:00 +5°C° 0 mm 3 mps 752 mmHg 92%
22:00 +6°C° 0 mm 2 mps 752 mmHg 93%
23:00 +5°C° 0 mm 2 mps 752 mmHg 93%

23 April, Friday

Time Temperature Precipitation Wind Pressure Humidity
00:00 +5°C° 0 mm 2 mps 752 mmHg 92%
01:00 +5°C° 0 mm 2 mps 752 mmHg 90%
02:00 +6°C° 0 mm 1 mps 752 mmHg 89%
03:00 +6°C° 0 mm 1 mps 753 mmHg 89%
04:00 +5°C° 0 mm 2 mps 753 mmHg 89%
05:00 +5°C° 0 mm 2 mps 753 mmHg 89%
06:00 +6°C° 0 mm 2 mps 753 mmHg 86%
07:00 +7°C° 0 mm 2 mps 754 mmHg 82%
08:00 +7°C° 0 mm 2 mps 754 mmHg 79%
09:00 +9°C° 0 mm 2 mps 754 mmHg 75%
10:00 +10°C° 0 mm 2 mps 754 mmHg 71%
11:00 +12°C° 0 mm 2 mps 754 mmHg 67%
12:00 +14°C° 0.1 mm 2 mps 754 mmHg 64%
13:00 +15°C° 0.1 mm 2 mps 754 mmHg 60%
14:00 +16°C° 0.1 mm 2 mps 753 mmHg 56%
15:00 +15°C° 0.4 mm 2 mps 754 mmHg 60%
16:00 +15°C° 0.4 mm 2 mps 754 mmHg 64%
17:00 +15°C° 0.4 mm 2 mps 754 mmHg 68%
18:00 +14°C° 0.5 mm 2 mps 754 mmHg 73%
19:00 +12°C° 0.5 mm 3 mps 755 mmHg 78%
20:00 +11°C° 0.5 mm 3 mps 755 mmHg 83%
21:00 +10°C° 0.3 mm 3 mps 755 mmHg 86%
22:00 +9°C° 0.3 mm 3 mps 756 mmHg 89%
23:00 +8°C° 0.3 mm 4 mps 756 mmHg 92%
Show more